Location: Great Malvern
(52.1167°N, 2.3167°W)
Time: 16:16:54
(UTC+00:00)

USA 229 - Pass Details

Date: 18 September 2020
Orbit: 973 x 1239 km, 63.4° (Epoch: 14 October)

Event Time Altitude Azimuth Distance (km) Brightness Sun altitude
Rises 18:40:14 0° 238° (WSW) 3,711 7.4 -4.5°
Reaches altitude 10° 18:42:47 10° 241° (WSW) 2,789 6.8 -4.9°
Maximum altitude 18:49:18 65° 323° (NW) 1,157 4.2 -5.9°
Drops below altitude 10° 18:56:18 10° 45° (NE) 2,978 5.7 -6.9°
Sets 18:59:07 0° 49° (NE) 3,979 6.3 -7.4°
